G7GFU-13 Weather Reports


time (UTC)temp
C
wind
direction
speed
KPH
gust
KPH
rain 1hr
cm
rain 24hr
cm
rain mn
cm
humidity
%
barometer
mb
20260508090903 13 180 1.6 3.2 0.00 0.00 0.00 75 1016.8
20260508090003 12 181 1.6 6.4 0.00 0.00 0.00 75 1016.8
20260508085617 12 181 1.6 4.8 0.00 0.00 0.00 76 1016.7
20260508084503 12 185 1.6 4.8 0.00 0.00 0.00 75 1016.7
20260508083603 12 185 1.6 3.2 0.00 0.00 0.00 73 1016.6
20260508082703 12 182 1.6 6.4 0.00 0.00 0.00 73 1016.6
20260508081803 12 183 1.6 4.8 0.00 0.00 0.00 73 1016.6
20260508080903 12 189 1.6 4.8 0.00 0.00 0.00 74 1016.6
20260508080003 12 193 1.6 4.8 0.00 0.00 0.00 74 1016.6
20260508075403 13 183 1.6 6.4 0.00 0.00 0.00 74 1016.5
20260508074503 12 146 1.6 4.8 0.00 0.00 0.00 75 1016.5
20260508073603 12 142 1.6 4.8 0.00 0.00 0.00 77 1016.5
20260508072917 11 130 1.6 3.2 0.00 0.00 0.00 79 1016.5
20260508071803 11 130 1.6 4.8 0.00 0.00 0.00 78 1016.4
20260508070903 11 121 1.6 4.8 0.00 0.00 0.00 78 1016.3
20260508070003 11 118 0.0 3.2 0.00 0.00 0.00 78 1016.3
20260508065403 11 119 0.0 3.2 0.00 0.00 0.00 79 1016.2
20260508064503 11 118 1.6 4.8 0.00 0.00 0.00 79 1016.1
20260508063603 11 118 0.0 3.2 0.00 0.00 0.00 78 1016.0
20260508062703 11 108 1.6 4.8 0.00 0.00 0.00 78 1015.9
20260508061803 10 86 0.0 1.6 0.00 0.00 0.00 80 1015.8
20260508060903 10 99 0.0 4.8 0.00 0.00 0.00 80 1015.8
20260508060003 10 75 0.0 3.2 0.00 0.00 0.00 81 1015.7
20260508055403 10 88 0.0 4.8 0.00 0.00 0.00 82 1015.7
20260508054503 9 91 0.0 4.8 0.00 0.00 0.00 84 1015.6
20260508053603 8 50 1.6 4.8 0.00 0.00 0.00 85 1015.5
20260508052703 8 161 0.0 6.4 0.00 0.00 0.00 85 1015.4
20260508051803 8 0 0.0 1.6 0.00 0.00 0.00 86 1015.3
20260508050903 8 173 0.0 3.2 0.00 0.00 0.00 86 1015.2
20260508050003 8 0 0.0 1.6 0.00 0.00 0.00 85 1015.2
20260508045403 8 0 0.0 0.0 0.00 0.00 0.00 85 1015.2
20260508044503 8 0 0.0 0.0 0.00 0.00 0.00 84 1015.3
20260508043603 8 0 0.0 0.0 0.00 0.00 0.00 84 1015.3
20260508042703 8 0 0.0 0.0 0.00 0.00 0.00 84 1015.3
20260508041803 8 0 0.0 0.0 0.00 0.00 0.00 84 1015.3
20260508040903 8 0 0.0 1.6 0.00 0.00 0.00 84 1015.3
20260508040003 8 0 0.0 0.0 0.00 0.00 0.00 84 1015.3
20260508035617 8 0 0.0 0.0 0.00 0.00 0.00 84 1015.3
20260508034503 8 0 0.0 1.6 0.00 0.00 0.00 85 1015.3
20260508033603 8 0 0.0 1.6 0.00 0.00 0.00 85 1015.3
20260508032703 8 0 0.0 1.6 0.00 0.00 0.00 86 1015.3
20260508031803 8 0 0.0 0.0 0.00 0.00 0.00 87 1015.3
20260508031118 8 173 0.0 3.2 0.00 0.00 0.00 88 1015.3
20260508030003 7 0 0.0 0.0 0.00 0.00 0.00 89 1015.3
20260508025403 7 0 0.0 0.0 0.00 0.00 0.00 89 1015.3
20260508024503 7 0 0.0 0.0 0.00 0.00 0.00 88 1015.3
20260508023603 7 0 0.0 0.0 0.00 0.00 0.00 88 1015.3
20260508022703 7 0 0.0 0.0 0.00 0.00 0.00 88 1015.3
20260508021803 7 0 0.0 0.0 0.00 0.00 0.00 87 1015.3
20260508020903 8 0 0.0 0.0 0.00 0.00 0.00 86 1015.3
20260508020003 8 0 0.0 0.0 0.00 0.00 0.00 85 1015.3
20260508015403 8 0 0.0 0.0 0.00 0.00 0.00 85 1015.3
20260508014718 8 172 0.0 1.6 0.00 0.00 0.00 85 1015.3
20260508013603 8 0 0.0 0.0 0.00 0.00 0.00 85 1015.2
20260508012916 8 0 0.0 0.0 0.00 0.00 0.00 85 1015.2
20260508011803 8 173 0.0 0.0 0.00 0.00 0.00 84 1015.2
20260508010903 9 173 0.0 3.2 0.00 0.00 0.00 84 1015.1
20260508010003 9 0 0.0 1.6 0.00 0.00 0.00 84 1015.1
20260508005403 9 0 0.0 0.0 0.00 0.00 0.00 84 1015.1
20260508004503 9 0 0.0 0.0 0.00 0.00 0.00 83 1015.1
20260508003603 9 0 0.0 1.6 0.00 0.00 0.00 83 1015.2
20260508002703 9 0 0.0 1.6 0.00 0.00 0.00 83 1015.2
20260508001803 9 0 0.0 0.0 0.00 0.00 0.00 84 1015.3
20260508000903 9 0 0.0 1.6 0.00 0.00 0.00 84 1015.3
20260508000003 9 0 0.0 1.6 0.00 0.00 0.00 84 1015.3
20260507235403 9 0 0.0 0.0 0.00 0.00 0.00 84 1015.3
20260507234717 9 0 0.0 0.0 0.00 0.00 0.00 84 1015.3
20260507233816 9 0 0.0 0.0 0.00 0.00 0.00 83 1015.3
20260507232703 9 174 0.0 1.6 0.00 0.00 0.00 83 1015.3
20260507231803 10 173 0.0 3.2 0.00 0.00 0.00 83 1015.3
20260507230903 10 174 1.6 6.4 0.00 0.00 0.00 83 1015.3
20260507230003 10 179 0.0 3.2 0.00 0.00 0.00 82 1015.3
20260507225617 10 179 0.0 3.2 0.00 0.00 0.00 83 1015.3
20260507224504 10 0 0.0 0.0 0.00 0.00 0.00 83 1015.2
20260507223603 10 0 0.0 1.6 0.00 0.00 0.00 83 1015.2
20260507222703 9 0 0.0 0.0 0.00 0.00 0.00 83 1015.1
20260507221803 10 179 0.0 1.6 0.00 0.00 0.00 83 1015.1
20260507220903 9 0 0.0 1.6 0.00 0.00 0.00 83 1015.1
20260507220003 10 0 0.0 1.6 0.00 0.00 0.00 82 1015.0
20260507215404 10 0 0.0 1.6 0.00 0.00 0.00 83 1015.0
20260507214503 10 0 0.0 0.0 0.00 0.00 0.00 81 1015.0
20260507213603 10 0 0.0 0.0 0.00 0.00 0.00 80 1015.0
20260507212703 10 0 0.0 0.0 0.00 0.00 0.00 80 1015.0
20260507212016 11 179 0.0 1.6 0.00 0.00 0.00 79 1015.0
20260507210903 11 179 0.0 1.6 0.00 0.00 0.00 79 1015.0
20260507210003 11 0 0.0 1.6 0.00 0.00 0.00 79 1014.9
20260507205403 11 0 0.0 0.0 0.00 0.00 0.00 79 1014.8
20260507204503 11 0 0.0 0.0 0.00 0.00 0.00 79 1014.7
20260507203603 11 0 0.0 0.0 0.00 0.00 0.00 78 1014.7
20260507202703 11 0 0.0 1.6 0.00 0.00 0.00 78 1014.5
20260507202018 11 0 0.0 1.6 0.00 0.00 0.00 77 1014.5
20260507200903 11 179 0.0 1.6 0.00 0.00 0.00 76 1014.4
20260507200003 11 177 1.6 4.8 0.00 0.00 0.00 76 1014.3
20260507195403 11 190 1.6 6.4 0.00 0.00 0.00 75 1014.2
20260507194503 11 198 1.6 4.8 0.00 0.00 0.00 75 1014.2
20260507193603 11 198 1.6 4.8 0.00 0.00 0.00 75 1014.2
20260507192703 11 198 0.0 3.2 0.00 0.00 0.00 74 1014.2
20260507191803 11 198 0.0 3.2 0.00 0.00 0.00 73 1014.2
20260507190903 11 0 0.0 1.6 0.00 0.00 0.00 73 1014.2
20260507190004 12 198 1.6 4.8 0.00 0.00 0.00 74 1014.2
20260507185403 12 197 0.0 3.2 0.00 0.00 0.00 74 1014.2
20260507184503 12 197 0.0 3.2 0.00 0.00 0.00 73 1014.2
20260507183603 12 194 1.6 4.8 0.00 0.00 0.00 72 1014.1
20260507182703 12 192 1.6 3.2 0.00 0.00 0.00 72 1014.0
20260507181803 12 0 0.0 3.2 0.00 0.00 0.00 72 1013.9
20260507180903 12 191 0.0 4.8 0.00 0.00 0.00 71 1013.9
20260507180003 12 198 0.0 3.2 0.00 0.00 0.00 71 1013.9
20260507175617 12 198 0.0 3.2 0.00 0.00 0.00 71 1013.9
20260507174503 12 191 0.0 4.8 0.00 0.00 0.00 70 1013.9
20260507173816 12 193 1.6 4.8 0.00 0.00 0.00 68 1013.9
20260507172703 13 192 4.8 9.7 0.00 0.00 0.00 61 1013.8
20260507171803 13 198 3.2 8.0 0.00 0.00 0.00 62 1013.8
20260507171116 13 167 4.8 8.0 0.00 0.00 0.00 60 1013.8
20260507170003 13 187 6.4 20.9 0.00 0.00 0.00 58 1013.8
20260507165403 14 182 6.4 11.3 0.00 0.00 0.00 58 1013.8
20260507164503 14 165 6.4 9.7 0.00 0.00 0.00 57 1013.7
20260507163603 14 181 6.4 14.5 0.00 0.00 0.00 56 1013.7
20260507162703 14 158 6.4 14.5 0.00 0.00 0.00 56 1013.7
20260507161803 14 186 6.4 17.7 0.00 0.00 0.00 55 1013.7
20260507161118 15 169 4.8 12.9 0.00 0.00 0.00 54 1013.8
20260507160003 15 147 4.8 12.9 0.00 0.00 0.00 55 1013.8
20260507155403 15 160 4.8 12.9 0.00 0.00 0.00 54 1013.8
20260507154503 14 173 3.2 11.3 0.00 0.00 0.00 57 1013.9
20260507153818 14 185 3.2 6.4 0.00 0.00 0.00 57 1013.9
20260507152703 13 198 3.2 6.4 0.00 0.00 0.00 58 1014.0
20260507151803 13 170 4.8 12.9 0.00 0.00 0.00 58 1014.0
20260507150903 14 152 6.4 14.5 0.00 0.00 0.00 56 1014.0
20260507150217 14 186 4.8 14.5 0.00 0.00 0.00 55 1014.0
20260507145403 15 164 4.8 16.1 0.00 0.00 0.00 55 1014.1
20260507144503 15 152 6.4 12.9 0.00 0.00 0.00 55 1014.2
20260507143603 15 169 6.4 14.5 0.00 0.00 0.00 54 1014.3
20260507142703 15 178 6.4 22.5 0.00 0.00 0.00 54 1014.4
20260507141803 16 183 6.4 11.3 0.00 0.00 0.00 52 1014.6
20260507140903 16 173 4.8 17.7 0.00 0.00 0.00 52 1014.6
20260507140003 16 150 4.8 11.3 0.00 0.00 0.00 53 1014.6
20260507135618 15 164 4.8 14.5 0.00 0.00 0.00 52 1014.7
20260507134503 15 177 4.8 9.7 0.00 0.00 0.00 53 1014.8
20260507133603 15 178 6.4 16.1 0.00 0.00 0.00 55 1014.8
20260507132703 15 158 6.4 14.5 0.00 0.00 0.00 53 1014.9
20260507131803 15 157 6.4 12.9 0.00 0.00 0.00 54 1014.9
20260507130903 15 157 6.4 14.5 0.00 0.00 0.00 54 1014.9
20260507130003 15 160 6.4 16.1 0.00 0.00 0.00 56 1015.0
20260507125403 15 178 6.4 16.1 0.00 0.00 0.00 56 1015.1
20260507124503 15 167 8.0 12.9 0.00 0.00 0.00 57 1015.1
20260507123603 15 166 6.4 12.9 0.00 0.00 0.00 56 1015.1
20260507122918 14 174 6.4 17.7 0.00 0.00 0.00 56 1015.1
20260507121803 14 173 6.4 16.1 0.00 0.00 0.00 56 1015.1
20260507120903 13 161 6.4 16.1 0.00 0.00 0.00 62 1015.2
20260507120004 13 154 6.4 11.3 0.00 0.00 0.00 64 1015.2
20260507115617 13 157 6.4 16.1 0.00 0.00 0.00 64 1015.2
20260507114717 12 158 6.4 12.9 0.00 0.00 0.00 66 1015.3
20260507113603 11 159 8.0 14.5 0.00 0.00 0.00 69 1015.4
20260507112703 11 156 6.4 14.5 0.00 0.00 0.00 70 1015.4
20260507112017 11 153 6.4 14.5 0.00 0.00 0.00 71 1015.4
20260507110903 11 159 4.8 12.9 0.00 0.00 0.00 71 1015.5
20260507110003 10 150 4.8 11.3 0.00 0.00 0.00 73 1015.5
20260507105403 10 146 4.8 6.4 0.00 0.00 0.00 73 1015.6
20260507104503 10 150 6.4 14.5 0.00 0.00 0.00 74 1015.7
20260507103603 10 150 4.8 11.3 0.00 0.00 0.00 73 1015.7
20260507102703 10 154 6.4 12.9 0.00 0.00 0.00 75 1015.7
20260507101803 10 159 6.4 14.5 0.00 0.00 0.00 74 1015.7
20260507100903 10 158 6.4 12.9 0.00 0.00 0.00 75 1015.7
20260507100003 9 158 4.8 9.7 0.00 0.00 0.00 77 1015.7
20260507095403 9 152 6.4 11.3 0.00 0.00 0.00 78 1015.7
20260507094503 8 166 6.4 12.9 0.00 0.00 0.00 78 1015.7
20260507093817 8 146 6.4 12.9 0.00 0.00 0.00 79 1015.7
20260507092703 8 148 6.4 11.3 0.00 0.00 0.00 80 1015.7
20260507091803 8 161 4.8 11.3 0.00 0.00 0.00 81 1015.7